| time (UTC) | temp F | wind direction | speed knots | gust knots | rain 1hr in | rain 24hr in | rain mn in | humidity % | barometer mb |
| 20260507031537 | 55 | 336 | 0.0 | 0.0 | 0.00 | 0.00 | 0.00 | 59 | 1018.0 |
| 20260507030035 | 56 | 336 | 0.0 | 0.0 | 0.00 | 0.00 | 0.00 | 58 | 1017.8 |
| 20260507024533 | 57 | 24 | 0.0 | 0.0 | 0.00 | 0.00 | 0.00 | 56 | 1017.5 |
| 20260507023033 | 57 | 23 | 0.0 | 0.0 | 0.00 | 0.00 | 0.00 | 56 | 1017.3 |
| 20260507021532 | 58 | 30 | 0.0 | 1.7 | 0.00 | 0.00 | 0.00 | 54 | 1017.2 |
| 20260507020033 | 59 | 359 | 0.0 | 2.6 | 0.00 | 0.00 | 0.00 | 53 | 1017.0 |
| 20260507014531 | 60 | 32 | 0.0 | 1.7 | 0.00 | 0.00 | 0.00 | 52 | 1016.8 |
| 20260507013036 | 60 | 18 | 0.9 | 3.5 | 0.00 | 0.00 | 0.00 | 51 | 1016.6 |
| 20260507011533 | 61 | 65 | 0.9 | 3.5 | 0.00 | 0.00 | 0.00 | 51 | 1016.2 |
| 20260507010036 | 61 | 50 | 0.9 | 3.5 | 0.00 | 0.00 | 0.00 | 50 | 1016.2 |
| 20260507004528 | 62 | 18 | 1.7 | 6.1 | 0.00 | 0.00 | 0.00 | 49 | 1016.2 |
| 20260507003028 | 63 | 60 | 0.9 | 6.1 | 0.00 | 0.00 | 0.00 | 48 | 1016.1 |
| 20260507001530 | 63 | 13 | 2.6 | 7.0 | 0.00 | 0.00 | 0.00 | 48 | 1016.0 |
| 20260507000029 | 64 | 356 | 1.7 | 5.2 | 0.00 | 0.00 | 0.00 | 47 | 1016.0 |
| 20260506234542 | 64 | 29 | 2.6 | 4.3 | 0.00 | 0.00 | 0.00 | 47 | 1015.8 |
| 20260506233024 | 64 | 58 | 1.7 | 4.3 | 0.00 | 0.00 | 0.00 | 47 | 1015.7 |
| 20260506231524 | 65 | 345 | 0.9 | 5.2 | 0.00 | 0.00 | 0.00 | 47 | 1015.4 |
| 20260506230022 | 65 | 51 | 1.7 | 4.3 | 0.00 | 0.00 | 0.00 | 47 | 1015.5 |
| 20260506224527 | 65 | 40 | 1.7 | 7.0 | 0.00 | 0.00 | 0.00 | 47 | 1015.4 |
| 20260506223022 | 65 | 57 | 2.6 | 8.7 | 0.00 | 0.00 | 0.00 | 47 | 1015.1 |
| 20260506221519 | 65 | 113 | 2.6 | 8.7 | 0.00 | 0.00 | 0.00 | 48 | 1015.0 |
| 20260506220029 | 64 | 46 | 2.6 | 10.4 | 0.00 | 0.00 | 0.00 | 47 | 1015.0 |
| 20260506214515 | 64 | 36 | 2.6 | 5.2 | 0.00 | 0.00 | 0.00 | 49 | 1015.2 |
| 20260506213014 | 64 | 44 | 3.5 | 7.0 | 0.00 | 0.00 | 0.00 | 49 | 1015.3 |
| 20260506211518 | 64 | 33 | 3.5 | 6.1 | 0.00 | 0.00 | 0.00 | 49 | 1015.5 |
| 20260506210010 | 63 | 151 | 2.6 | 8.7 | 0.00 | 0.00 | 0.00 | 51 | 1015.7 |
| 20260506204509 | 63 | 25 | 1.7 | 10.4 | 0.00 | 0.00 | 0.00 | 51 | 1015.8 |
| 20260506203006 | 62 | 23 | 3.5 | 8.7 | 0.00 | 0.00 | 0.00 | 53 | 1015.8 |
| 20260506201506 | 62 | 20 | 2.6 | 7.0 | 0.00 | 0.00 | 0.00 | 52 | 1015.9 |
| 20260506200004 | 62 | 3 | 4.3 | 9.6 | 0.00 | 0.00 | 0.00 | 53 | 1016.1 |
| 20260506194503 | 61 | 25 | 0.9 | 6.1 | 0.00 | 0.00 | 0.00 | 55 | 1016.1 |
| 20260506193003 | 61 | 11 | 2.6 | 7.0 | 0.00 | 0.00 | 0.00 | 55 | 1016.2 |
| 20260506191502 | 61 | 44 | 0.9 | 7.8 | 0.00 | 0.00 | 0.00 | 55 | 1016.5 |
| 20260506190100 | 61 | 339 | 1.7 | 7.0 | 0.00 | 0.00 | 0.00 | 54 | 1016.5 |
| 20260506190001 | 61 | 40 | 2.6 | 7.0 | 0.00 | 0.00 | 0.00 | 53 | 1016.5 |
| 20260506184559 | 61 | 340 | 0.9 | 8.7 | 0.00 | 0.00 | 0.00 | 54 | 1016.5 |
| 20260506183102 | 62 | 30 | 2.6 | 6.1 | 0.00 | 0.00 | 0.00 | 53 | 1016.6 |
| 20260506181625 | 61 | 65 | 0.9 | 6.1 | 0.00 | 0.00 | 0.00 | 53 | 1016.8 |
| 20260506180058 | 61 | 41 | 2.6 | 7.0 | 0.00 | 0.00 | 0.00 | 53 | 1017.0 |
| 20260506174554 | 61 | 79 | 0.9 | 5.2 | 0.00 | 0.00 | 0.00 | 55 | 1017.0 |
| 20260506173121 | 60 | 42 | 2.6 | 8.7 | 0.00 | 0.00 | 0.00 | 54 | 1017.3 |
| 20260506171601 | 60 | 101 | 2.6 | 7.8 | 0.00 | 0.00 | 0.00 | 53 | 1017.3 |
| 20260506170058 | 59 | 40 | 1.7 | 5.2 | 0.00 | 0.00 | 0.00 | 58 | 1017.3 |
| 20260506164549 | 58 | 61 | 3.5 | 8.7 | 0.00 | 0.00 | 0.00 | 58 | 1017.2 |
| 20260506163046 | 57 | 48 | 2.6 | 7.0 | 0.00 | 0.00 | 0.00 | 59 | 1017.6 |
| 20260506161543 | 56 | 68 | 2.6 | 7.0 | 0.00 | 0.00 | 0.00 | 61 | 1017.5 |
| 20260506160044 | 56 | 30 | 3.5 | 8.7 | 0.00 | 0.00 | 0.00 | 62 | 1017.4 |
| 20260506154536 | 54 | 6 | 3.5 | 7.8 | 0.00 | 0.00 | 0.00 | 66 | 1017.3 |
| 20260506153031 | 53 | 32 | 3.5 | 7.8 | 0.00 | 0.00 | 0.00 | 68 | 1017.1 |
| 20260506151530 | 52 | 40 | 2.6 | 7.8 | 0.00 | 0.00 | 0.00 | 73 | 1017.0 |
| 20260506150026 | 52 | 49 | 1.7 | 8.7 | 0.00 | 0.00 | 0.00 | 72 | 1016.9 |
| 20260506144522 | 51 | 62 | 2.6 | 8.7 | 0.00 | 0.00 | 0.00 | 74 | 1016.6 |
| 20260506143021 | 51 | 27 | 1.7 | 10.4 | 0.00 | 0.00 | 0.00 | 75 | 1016.4 |
| 20260506141518 | 50 | 22 | 3.5 | 10.4 | 0.00 | 0.00 | 0.00 | 76 | 1016.2 |
| 20260506140016 | 50 | 60 | 3.5 | 7.8 | 0.00 | 0.00 | 0.00 | 78 | 1016.4 |
| 20260506134521 | 49 | 32 | 2.6 | 6.1 | 0.00 | 0.00 | 0.00 | 80 | 1016.5 |
| 20260506133015 | 49 | 12 | 1.7 | 7.0 | 0.00 | 0.00 | 0.00 | 80 | 1016.6 |
| 20260506131535 | 49 | 4 | 3.5 | 7.0 | 0.00 | 0.00 | 0.00 | 80 | 1016.6 |
| 20260506130016 | 49 | 23 | 2.6 | 6.1 | 0.00 | 0.00 | 0.00 | 80 | 1016.5 |
| 20260506124510 | 49 | 28 | 3.5 | 9.6 | 0.00 | 0.00 | 0.00 | 82 | 1016.2 |
| 20260506123009 | 49 | 39 | 1.7 | 6.1 | 0.00 | 0.00 | 0.00 | 82 | 1016.1 |
| 20260506121505 | 48 | 7 | 2.6 | 6.1 | 0.00 | 0.00 | 0.00 | 83 | 1015.5 |
| 20260506120008 | 48 | 26 | 0.9 | 7.0 | 0.00 | 0.00 | 0.00 | 83 | 1015.1 |
| 20260506114502 | 48 | 33 | 1.7 | 4.3 | 0.00 | 0.00 | 0.00 | 83 | 1015.1 |
| 20260506113001 | 48 | 355 | 1.7 | 6.1 | 0.00 | 0.00 | 0.00 | 82 | 1015.0 |
| 20260506111600 | 48 | 340 | 1.7 | 4.3 | 0.00 | 0.00 | 0.00 | 82 | 1014.7 |
| 20260506110104 | 48 | 44 | 1.7 | 4.3 | 0.00 | 0.00 | 0.00 | 81 | 1014.5 |
| 20260506104557 | 48 | 25 | 1.7 | 4.3 | 0.00 | 0.00 | 0.00 | 81 | 1015.0 |
| 20260506103054 | 49 | 65 | 1.7 | 5.2 | 0.00 | 0.00 | 0.00 | 80 | 1015.3 |
| 20260506101553 | 49 | 345 | 0.0 | 4.3 | 0.00 | 0.00 | 0.00 | 80 | 1015.0 |
| 20260506100052 | 49 | 353 | 0.0 | 3.5 | 0.00 | 0.00 | 0.00 | 79 | 1014.9 |
| 20260506094616 | 49 | 24 | 0.0 | 4.3 | 0.00 | 0.00 | 0.00 | 78 | 1014.8 |
| 20260506093047 | 49 | 26 | 1.7 | 6.1 | 0.00 | 0.00 | 0.00 | 77 | 1014.3 |
| 20260506091548 | 49 | 19 | 1.7 | 7.0 | 0.00 | 0.00 | 0.00 | 77 | 1013.7 |
| 20260506090042 | 49 | 39 | 0.9 | 5.2 | 0.00 | 0.00 | 0.00 | 76 | 1013.9 |
| 20260506084542 | 49 | 54 | 0.9 | 4.3 | 0.00 | 0.00 | 0.00 | 75 | 1013.6 |
| 20260506083037 | 49 | 5 | 0.9 | 7.8 | 0.00 | 0.00 | 0.00 | 75 | 1013.5 |
| 20260506081534 | 49 | 37 | 2.6 | 9.6 | 0.00 | 0.00 | 0.00 | 74 | 1012.7 |
| 20260506073029 | 49 | 14 | 1.7 | 5.2 | 0.00 | 0.00 | 0.00 | 74 | 1012.0 |
| 20260506071528 | 49 | 28 | 0.9 | 6.1 | 0.00 | 0.00 | 0.00 | 72 | 1012.2 |
| 20260506061523 | 49 | 37 | 3.5 | 7.0 | 0.00 | 0.00 | 0.00 | 72 | 1012.0 |
| 20260506044508 | 50 | 358 | 4.3 | 7.8 | 0.00 | 0.00 | 0.00 | 72 | 1011.6 |
| 20260506043007 | 50 | 25 | 2.6 | 8.7 | 0.00 | 0.00 | 0.00 | 74 | 1011.9 |
| 20260506041513 | 50 | 71 | 2.6 | 7.8 | 0.00 | 0.00 | 0.00 | 76 | 1011.8 |
| 20260506040006 | 50 | 19 | 1.7 | 5.2 | 0.00 | 0.00 | 0.00 | 79 | 1011.5 |
| 20260506034501 | 50 | 40 | 3.5 | 7.0 | 0.00 | 0.00 | 0.00 | 80 | 1011.5 |
| 20260506033100 | 50 | 357 | 3.5 | 7.8 | 0.00 | 0.00 | 0.00 | 80 | 1011.3 |